Weather History for Custer, SD

Change the Weather History Date:

Thursday, November 28, 2013

  Actual Average Record
Temperature  
Mean Temperature 30 °F 26 °F  
Max Temperature 41 °F 36 °F 61 °F (1963)
Min Temperature 18 °F 16 °F -8 °F (1967)
Degree Days  
Heating Degree Days 35 39  
Month to date heating degree days 932 923  
Since 1 July heating degree days 2060 2102  
Cooling Degree Days 0 0  
Month to date cooling degree days 0 0  
Year to date cooling degree days 187 177  
Moisture  
Dew Point 18 °F    
Average Humidity 61    
Maximum Humidity 84    
Minimum Humidity 37    
Precipitation  
Precipitation 0.00 in 0.01 in 0.40 in (1991)
Month to date precipitation 0.61 0.57  
Year to date precipitation 21.42 18.53  
Sea Level Pressure  
Sea Level Pressure 30.19 in    
Wind  
Wind Speed 4 mph (WSW)    
Max Wind Speed 10 mph    
Max Gust Speed 15 mph    
Visibility 10 miles    
Events      
T = Trace of Precipitation, MM = Missing Value Source: NWS Daily Summary

Daily Weather History Graph

Daily Weather History Graph

Search for Another Location

Airport:

Trip Planner

Search our weather history database for the weather conditions in past years. The results will help you decide how hot, cold, wet, or windy it might be!

Date:

Astronomy

Nov. 28, 2013 Rise Set
Actual Time 7:05 AM MST 4:19 PM MST
Civil Twilight 6:33 AM MST 4:51 PM MST
Nautical Twilight 5:57 AM MST 5:27 PM MST
Astronomical Twilight 5:23 AM MST 6:01 PM MST
Moon 2:01 AM MST (11/28) 1:37 PM MST (11/28)
Length of Visible Light 10h 18m
Length of Day
9h 14m
Waning Crescent, 22% of the Moon is Illuminated
Nov 28
Waning Crescent
Dec 2
New
Dec 9
First Quarter
Dec 17
Full
Dec 25
Last Quarter

Hourly Weather History & Observations

Time (MST) Temp. Windchill Dew Point Humidity Pressure Visibility Wind Dir Wind Speed Gust Speed Precip Events Conditions
12:53 AM 26.1 °F 21.9 °F 15.1 °F 63% 30.11 in 10.0 mi West 3.5 mph - N/A   Clear
1:53 AM 23.0 °F - 15.1 °F 72% 30.14 in 10.0 mi Calm Calm - N/A   Clear
2:53 AM 23.0 °F - 16.0 °F 74% 30.14 in 10.0 mi Calm Calm - N/A   Clear
3:53 AM 21.9 °F - 15.1 °F 75% 30.16 in 10.0 mi Calm Calm - N/A   Clear
4:53 AM 21.0 °F - 15.1 °F 78% 30.20 in 10.0 mi Calm Calm - N/A   Clear
5:53 AM 21.0 °F - 16.0 °F 81% 30.23 in 10.0 mi Calm Calm - N/A   Clear
6:53 AM 18.0 °F 12.7 °F 14.0 °F 84% 30.25 in 10.0 mi NW 3.5 mph - N/A   Clear
7:53 AM 24.1 °F - 17.1 °F 75% 30.25 in 10.0 mi Calm Calm - N/A   Clear
8:53 AM 27.0 °F 23.0 °F 19.0 °F 72% 30.27 in 10.0 mi SSW 3.5 mph - N/A   Clear
9:53 AM 32.0 °F 28.7 °F 19.9 °F 61% 30.25 in 10.0 mi South 3.5 mph - N/A   Clear
10:53 AM 35.1 °F 30.1 °F 19.9 °F 54% 30.24 in 10.0 mi Variable 5.8 mph - N/A   Clear
11:53 AM 37.9 °F 33.5 °F 19.9 °F 48% 30.21 in 10.0 mi Variable 5.8 mph - N/A   Clear
12:53 PM 39.0 °F 34.0 °F 18.0 °F 43% 30.18 in 10.0 mi SSW 6.9 mph - N/A   Clear
1:53 PM 39.9 °F 33.9 °F 15.1 °F 36% 30.18 in 10.0 mi SW 9.2 mph - N/A   Clear
2:53 PM 39.9 °F 37.8 °F 16.0 °F 38% 30.17 in 10.0 mi Variable 3.5 mph - N/A   Clear
3:53 PM 35.1 °F 31.0 °F 18.0 °F 50% 30.20 in 10.0 mi Variable 4.6 mph - N/A   Clear
4:53 PM 30.0 °F 26.5 °F 19.9 °F 66% 30.23 in 10.0 mi SW 3.5 mph - N/A   Clear
5:53 PM 27.0 °F 23.0 °F 19.9 °F 75% 30.25 in 10.0 mi WSW 3.5 mph - N/A   Clear
6:53 PM 27.0 °F 21.6 °F 19.9 °F 75% 30.25 in 10.0 mi WSW 4.6 mph - N/A   Clear
7:53 PM 26.1 °F 19.4 °F 19.9 °F 78% 30.22 in 10.0 mi West 5.8 mph - N/A   Clear
8:53 PM 27.0 °F 20.5 °F 21.0 °F 78% 30.19 in 10.0 mi West 5.8 mph - N/A   Clear
9:53 PM 28.9 °F 22.8 °F 21.9 °F 75% 30.14 in 10.0 mi West 5.8 mph - N/A   Clear
10:53 PM 32.0 °F 24.8 °F 23.0 °F 69% 30.11 in 10.0 mi West 8.1 mph - N/A   Clear
11:53 PM 30.0 °F 22.4 °F 21.9 °F 72% 30.09 in 10.0 mi West 8.1 mph - N/A   Clear